ARIANE 2 DEB, 26717

Orbit data source: Space-Track

ARIANE 2 DEB, 26717 is space debris in HEO originally from a launch on Fri, 27 Jan 1989 UTC launched from the French Guiana (FRGUI). Debris objects in space refer to the collection of defunct objects orbiting the Earth. Examples of debris include non-operational satellites, rocket bodies, and fragments generated from explosions, collisions, or faulty payload assembly.

Loading next visibility...
Identifier
26717, 1989-006C
Orbit
HEO
Country
Flag of FRFR
Related business
Manufacturer
EADS/LV
Mission
Spacecraft
Bus & Motor
Unknown
Mass
Unknown
Launch date (UTC)
1989-01-27 (38 years ago)
Launch vehicle
Unknown
Launch site
French Guiana (FRGUI)
Object type
Payload
Rocket body
Debris
Shape & HBR
Unknown shape, 1.5 m
Radar Cross Section
Large (>1 m²)

Expand to show TLE details & history
Last TLE update: 7 hours ago

TLE from 7 hours ago
0 ARIANE 2 DEB
1 26717U 89006C   26256.92561610 -.00000068  00000-0  15382-3 0  9994
2 26717   8.0177 112.3743 7159689   2.2289 140.4381  2.26368273212484
Epoch: 2026-09-13T22:12Z
TLE epoch observation values (Epoch: 2026-09-13T22:12:53.231Z)
Latitude
1.03435°
Longitude
-41.03715°
Altitude
34,202.545 km
Speed
1.838 km/s
True Right ascension
19h 00m 23s
True Declination
1° 01' 60"
Sunlit
Object was in daylight at epoch
Visualization orbit readout
Latitude
Unknown
Longitude
Unknown
Altitude
Unknown
Speed
Unknown
Apparent Right ascension
Unknown
Apparent Declination
Unknown
Sunlit
N/A
Visualization observer readout
Local Sidereal Time
21:30:15
Azimuth
Unknown
Elevation
Unknown
Doppler factor
Unknown
Orbital elements
Apogee altitude
35,674.386 km
Perigee altitude
582.493 km
Semi-major axis
24,506.576 km
Eccentricity
0.71597
Inclination
8.0177°
RAAN
112.3743°
Arg. of periapsis
2.2289°
True anomaly
170.40104°
Mean anomaly
140.4381°
Eccentric anomaly
156.67838°
Mean motion
0.56574 °/min
Orbital period
636.33 mins
BSTAR
0.00015382
Loading maneuver chart data...
Computing Atmospheric mass density...
Loading historical data...
Loading historical data...
Loading historical data...
Loading historical data...
Loading historical data...
Loading historical data...
Loading historical data...

Documentation

Showing up to 5 results
|